Time,TemperatureF,DewpointF,PressureIn,WindDirection,WindDirectionDegrees,WindSpeedMPH,WindSpeedGustMPH,Humidity,HourlyPrecipIn,Conditions,Clouds,dailyrainin,SoftwareType,DateUTC
2013-06-01 00:02:00,54.0,-99.9,-100.00,North,-999,-999.0,-999.0,-999,0.00,,,0.06,,2013-06-01 05:02:00,
2013-06-01 00:12:00,54.0,-99.9,-100.00,North,-999,-999.0,-999.0,-999,0.00,,,0.06,,2013-06-01 05:12:00,
2013-06-01 00:22:00,54.0,-99.9,-100.00,North,-999,-999.0,-999.0,-999,0.00,,,0.06,,2013-06-01 05:22:00,
2013-06-01 00:30:00,54.0,-99.9,-100.00,North,-999,-999.0,-999.0,-999,0.00,,,0.06,,2013-06-01 05:30:00,
2013-06-01 00:53:00,54.0,-99.9,-100.00,North,-999,-999.0,-999.0,-999,0.00,,,0.06,,2013-06-01 05:53:00,
2013-06-01 01:02:00,54.0,-99.9,-100.00,North,-999,-999.0,-999.0,-999,0.00,,,0.06,,2013-06-01 06:02:00,
2013-06-01 01:12:00,54.0,-99.9,-100.00,North,-999,-999.0,-999.0,-999,0.00,,,0.06,,2013-06-01 06:12:00,
2013-06-01 01:22:00,54.0,-99.9,-100.00,North,-999,-999.0,-999.0,-999,0.00,,,0.06,,2013-06-01 06:22:00,
2013-06-01 01:30:00,52.0,-99.9,-100.00,North,-999,-999.0,-999.0,-999,0.12,,,0.18,,2013-06-01 06:30:00,
2013-06-01 01:52:00,52.0,-99.9,-100.00,North,-999,-999.0,-999.0,-999,0.12,,,0.18,,2013-06-01 06:52:00,
2013-06-01 02:02:00,52.0,-99.9,-100.00,North,-999,-999.0,-999.0,-999,0.12,,,0.18,,2013-06-01 07:02:00,
2013-06-01 02:12:00,52.0,-99.9,-100.00,North,-999,-999.0,-999.0,-999,0.12,,,0.18,,2013-06-01 07:12:00,
2013-06-01 02:22:00,52.0,-99.9,-100.00,North,-999,-999.0,-999.0,-999,0.12,,,0.18,,2013-06-01 07:22:00,
2013-06-01 02:30:00,51.0,-99.9,-100.00,North,-999,-999.0,-999.0,-999,0.00,,,0.18,,2013-06-01 07:30:00,
2013-06-01 02:52:00,51.0,-99.9,-100.00,North,-999,-999.0,-999.0,-999,0.00,,,0.18,,2013-06-01 07:52:00,
2013-06-01 03:02:00,51.0,-99.9,-100.00,North,-999,-999.0,-999.0,-999,0.00,,,0.18,,2013-06-01 08:02:00,
2013-06-01 03:12:00,51.0,-99.9,-100.00,North,-999,-999.0,-999.0,-999,0.00,,,0.18,,2013-06-01 08:12:00,
2013-06-01 03:22:00,51.0,-99.9,-100.00,North,-999,-999.0,-999.0,-999,0.00,,,0.18,,2013-06-01 08:22:00,
2013-06-01 03:30:00,51.0,-99.9,-100.00,North,-999,-999.0,-999.0,-999,0.00,,,0.18,,2013-06-01 08:30:00,
2013-06-01 03:52:00,51.0,-99.9,-100.00,North,-999,-999.0,-999.0,-999,0.00,,,0.18,,2013-06-01 08:52:00,
2013-06-01 04:02:00,51.0,-99.9,-100.00,North,-999,-999.0,-999.0,-999,0.00,,,0.18,,2013-06-01 09:02:00,
2013-06-01 04:12:00,51.0,-99.9,-100.00,North,-999,-999.0,-999.0,-999,0.00,,,0.18,,2013-06-01 09:12:00,
2013-06-01 04:22:00,51.0,-99.9,-100.00,North,-999,-999.0,-999.0,-999,0.00,,,0.18,,2013-06-01 09:22:00,
2013-06-01 04:30:00,52.0,-99.9,-100.00,North,-999,-999.0,-999.0,-999,0.00,,,0.18,,2013-06-01 09:30:00,
2013-06-01 04:53:00,52.0,-99.9,-100.00,North,-999,-999.0,-999.0,-999,0.00,,,0.18,,2013-06-01 09:53:00,
2013-06-01 05:03:00,52.0,-99.9,-100.00,North,-999,-999.0,-999.0,-999,0.00,,,0.18,,2013-06-01 10:03:00,
2013-06-01 05:13:00,52.0,-99.9,-100.00,North,-999,-999.0,-999.0,-999,0.00,,,0.18,,2013-06-01 10:13:00,
2013-06-01 05:22:00,52.0,-99.9,-100.00,North,-999,-999.0,-999.0,-999,0.00,,,0.18,,2013-06-01 10:22:00,
2013-06-01 05:30:00,52.0,-99.9,-100.00,North,-999,-999.0,-999.0,-999,0.00,,,0.18,,2013-06-01 10:30:00,
2013-06-01 05:53:00,52.0,-99.9,-100.00,North,-999,-999.0,-999.0,-999,0.00,,,0.18,,2013-06-01 10:53:00,
2013-06-01 06:03:00,52.0,-99.9,-100.00,North,-999,-999.0,-999.0,-999,0.00,,,0.18,,2013-06-01 11:03:00,
2013-06-01 06:11:00,52.0,-99.9,-100.00,North,-999,-999.0,-999.0,-999,0.00,,,0.18,,2013-06-01 11:11:00,
2013-06-01 06:22:00,52.0,-99.9,-100.00,North,-999,-999.0,-999.0,-999,0.00,,,0.18,,2013-06-01 11:22:00,
2013-06-01 06:30:00,53.0,-99.9,-100.00,North,-999,-999.0,-999.0,-999,0.00,,,0.13,,2013-06-01 11:30:00,
2013-06-01 06:52:00,53.0,-99.9,-100.00,North,-999,-999.0,-999.0,-999,0.00,,,0.13,,2013-06-01 11:52:00,
2013-06-01 07:02:00,53.0,-99.9,-100.00,North,-999,-999.0,-999.0,-999,0.00,,,0.13,,2013-06-01 12:02:00,
2013-06-01 07:12:00,53.0,-99.9,-100.00,North,-999,-999.0,-999.0,-999,0.00,,,0.13,,2013-06-01 12:12:00,
2013-06-01 07:22:00,53.0,-99.9,-100.00,North,-999,-999.0,-999.0,-999,0.00,,,0.13,,2013-06-01 12:22:00,
2013-06-01 07:30:00,54.0,-99.9,-100.00,North,-999,-999.0,-999.0,-999,0.00,,,0.12,,2013-06-01 12:30:00,
2013-06-01 07:52:00,54.0,-99.9,-100.00,North,-999,-999.0,-999.0,-999,0.00,,,0.12,,2013-06-01 12:52:00,
2013-06-01 08:02:00,54.0,-99.9,-100.00,North,-999,-999.0,-999.0,-999,0.00,,,0.12,,2013-06-01 13:02:00,
2013-06-01 08:12:00,54.0,-99.9,-100.00,North,-999,-999.0,-999.0,-999,0.00,,,0.12,,2013-06-01 13:12:00,
2013-06-01 08:22:00,54.0,-99.9,-100.00,North,-999,-999.0,-999.0,-999,0.00,,,0.12,,2013-06-01 13:22:00,
2013-06-01 08:30:00,51.0,-99.9,-100.00,North,-999,-999.0,-999.0,-999,0.00,,,0.12,,2013-06-01 13:30:00,
2013-06-01 08:52:00,51.0,-99.9,-100.00,North,-999,-999.0,-999.0,-999,0.00,,,0.12,,2013-06-01 13:52:00,
2013-06-01 09:02:00,51.0,-99.9,-100.00,North,-999,-999.0,-999.0,-999,0.00,,,0.12,,2013-06-01 14:02:00,
2013-06-01 09:11:00,51.0,-99.9,-100.00,North,-999,-999.0,-999.0,-999,0.00,,,0.12,,2013-06-01 14:11:00,
2013-06-01 09:22:00,51.0,-99.9,-100.00,North,-999,-999.0,-999.0,-999,0.00,,,0.12,,2013-06-01 14:22:00,
2013-06-01 09:30:00,48.0,-99.9,-100.00,North,-999,-999.0,-999.0,-999,0.00,,,0.12,,2013-06-01 14:30:00,
2013-06-01 09:52:00,48.0,-99.9,-100.00,North,-999,-999.0,-999.0,-999,0.00,,,0.12,,2013-06-01 14:52:00,
2013-06-01 10:02:00,48.0,-99.9,-100.00,North,-999,-999.0,-999.0,-999,0.00,,,0.12,,2013-06-01 15:02:00,
2013-06-01 10:12:00,48.0,-99.9,-100.00,North,-999,-999.0,-999.0,-999,0.00,,,0.12,,2013-06-01 15:12:00,
2013-06-01 10:22:00,48.0,-99.9,-100.00,North,-999,-999.0,-999.0,-999,0.00,,,0.12,,2013-06-01 15:22:00,
2013-06-01 10:30:00,47.0,-99.9,-100.00,North,-999,-999.0,-999.0,-999,0.00,,,0.12,,2013-06-01 15:30:00,
2013-06-01 10:54:00,47.0,-99.9,-100.00,North,-999,-999.0,-999.0,-999,0.00,,,0.12,,2013-06-01 15:54:00,
2013-06-01 11:03:00,47.0,-99.9,-100.00,North,-999,-999.0,-999.0,-999,0.00,,,0.12,,2013-06-01 16:03:00,
2013-06-01 11:13:00,47.0,-99.9,-100.00,North,-999,-999.0,-999.0,-999,0.00,,,0.12,,2013-06-01 16:13:00,
2013-06-01 11:23:00,47.0,-99.9,-100.00,North,-999,-999.0,-999.0,-999,0.00,,,0.12,,2013-06-01 16:23:00,
2013-06-01 11:30:00,46.0,-99.9,-100.00,North,-999,-999.0,-999.0,-999,0.02,,,0.14,,2013-06-01 16:30:00,
2013-06-01 11:53:00,46.0,-99.9,-100.00,North,-999,-999.0,-999.0,-999,0.02,,,0.14,,2013-06-01 16:53:00,
2013-06-01 12:02:00,46.0,-99.9,-100.00,North,-999,-999.0,-999.0,-999,0.02,,,0.14,,2013-06-01 17:02:00,
2013-06-01 12:12:00,46.0,-99.9,-100.00,North,-999,-999.0,-999.0,-999,0.02,,,0.14,,2013-06-01 17:12:00,
2013-06-01 12:22:00,46.0,-99.9,-100.00,North,-999,-999.0,-999.0,-999,0.02,,,0.14,,2013-06-01 17:22:00,
2013-06-01 12:30:00,45.0,-99.9,-100.00,North,-999,-999.0,-999.0,-999,0.00,,,0.14,,2013-06-01 17:30:00,
2013-06-01 12:52:00,45.0,-99.9,-100.00,North,-999,-999.0,-999.0,-999,0.00,,,0.14,,2013-06-01 17:52:00,
2013-06-01 13:02:00,45.0,-99.9,-100.00,North,-999,-999.0,-999.0,-999,0.00,,,0.14,,2013-06-01 18:02:00,
2013-06-01 13:12:00,45.0,-99.9,-100.00,North,-999,-999.0,-999.0,-999,0.00,,,0.14,,2013-06-01 18:12:00,
2013-06-01 13:22:00,45.0,-99.9,-100.00,North,-999,-999.0,-999.0,-999,0.00,,,0.14,,2013-06-01 18:22:00,
2013-06-01 13:30:00,43.0,-99.9,-100.00,North,-999,-999.0,-999.0,-999,0.02,,,0.16,,2013-06-01 18:30:00,
2013-06-01 13:52:00,43.0,-99.9,-100.00,North,-999,-999.0,-999.0,-999,0.02,,,0.16,,2013-06-01 18:52:00,
2013-06-01 14:02:00,43.0,-99.9,-100.00,North,-999,-999.0,-999.0,-999,0.02,,,0.16,,2013-06-01 19:02:00,
2013-06-01 14:12:00,43.0,-99.9,-100.00,North,-999,-999.0,-999.0,-999,0.02,,,0.16,,2013-06-01 19:12:00,
2013-06-01 14:22:00,43.0,-99.9,-100.00,North,-999,-999.0,-999.0,-999,0.02,,,0.16,,2013-06-01 19:22:00,
2013-06-01 14:30:00,42.0,-99.9,-100.00,North,-999,-999.0,-999.0,-999,0.06,,,0.22,,2013-06-01 19:30:00,
2013-06-01 14:53:00,42.0,-99.9,-100.00,North,-999,-999.0,-999.0,-999,0.06,,,0.22,,2013-06-01 19:53:00,
2013-06-01 15:02:00,42.0,-99.9,-100.00,North,-999,-999.0,-999.0,-999,0.06,,,0.22,,2013-06-01 20:02:00,
2013-06-01 15:12:00,42.0,-99.9,-100.00,North,-999,-999.0,-999.0,-999,0.06,,,0.22,,2013-06-01 20:12:00,
2013-06-01 15:22:00,42.0,-99.9,-100.00,North,-999,-999.0,-999.0,-999,0.06,,,0.22,,2013-06-01 20:22:00,
2013-06-01 15:30:00,43.0,-99.9,-100.00,North,-999,-999.0,-999.0,-999,0.02,,,0.24,,2013-06-01 20:30:00,
2013-06-01 15:52:00,43.0,-99.9,-100.00,North,-999,-999.0,-999.0,-999,0.02,,,0.24,,2013-06-01 20:52:00,
2013-06-01 16:02:00,43.0,-99.9,-100.00,North,-999,-999.0,-999.0,-999,0.02,,,0.24,,2013-06-01 21:02:00,
2013-06-01 16:12:00,43.0,-99.9,-100.00,North,-999,-999.0,-999.0,-999,0.02,,,0.24,,2013-06-01 21:12:00,
2013-06-01 16:22:00,43.0,-99.9,-100.00,North,-999,-999.0,-999.0,-999,0.02,,,0.24,,2013-06-01 21:22:00,
2013-06-01 16:30:00,43.0,-99.9,-100.00,North,-999,-999.0,-999.0,-999,0.00,,,0.24,,2013-06-01 21:30:00,
2013-06-01 16:54:00,43.0,-99.9,-100.00,North,-999,-999.0,-999.0,-999,0.00,,,0.24,,2013-06-01 21:54:00,
2013-06-01 17:03:00,43.0,-99.9,-100.00,North,-999,-999.0,-999.0,-999,0.00,,,0.24,,2013-06-01 22:03:00,
2013-06-01 17:13:00,43.0,-99.9,-100.00,North,-999,-999.0,-999.0,-999,0.00,,,0.24,,2013-06-01 22:13:00,
2013-06-01 17:23:00,43.0,-99.9,-100.00,North,-999,-999.0,-999.0,-999,0.00,,,0.24,,2013-06-01 22:23:00,
2013-06-01 17:30:00,44.0,-99.9,-100.00,North,-999,-999.0,-999.0,-999,0.00,,,0.24,,2013-06-01 22:30:00,
2013-06-01 17:53:00,44.0,-99.9,-100.00,North,-999,-999.0,-999.0,-999,0.00,,,0.24,,2013-06-01 22:53:00,
2013-06-01 18:02:00,44.0,-99.9,-100.00,North,-999,-999.0,-999.0,-999,0.00,,,0.24,,2013-06-01 23:02:00,
2013-06-01 18:12:00,44.0,-99.9,-100.00,North,-999,-999.0,-999.0,-999,0.00,,,0.24,,2013-06-01 23:12:00,
2013-06-01 18:22:00,44.0,-99.9,-100.00,North,-999,-999.0,-999.0,-999,0.00,,,0.24,,2013-06-01 23:22:00,
2013-06-01 18:30:00,44.0,-99.9,-100.00,North,-999,-999.0,-999.0,-999,0.00,,,0.24,,2013-06-01 23:30:00,
2013-06-01 18:53:00,44.0,-99.9,-100.00,North,-999,-999.0,-999.0,-999,0.00,,,0.24,,2013-06-01 23:53:00,
2013-06-01 19:02:00,44.0,-99.9,-100.00,North,-999,-999.0,-999.0,-999,0.00,,,0.24,,2013-06-02 00:02:00,
2013-06-01 19:11:00,44.0,-99.9,-100.00,North,-999,-999.0,-999.0,-999,0.00,,,0.24,,2013-06-02 00:11:00,
2013-06-01 19:22:00,44.0,-99.9,-100.00,North,-999,-999.0,-999.0,-999,0.00,,,0.24,,2013-06-02 00:22:00,
2013-06-01 19:30:00,44.0,-99.9,-100.00,North,-999,-999.0,-999.0,-999,0.00,,,0.24,,2013-06-02 00:30:00,
2013-06-01 19:52:00,44.0,-99.9,-100.00,North,-999,-999.0,-999.0,-999,0.00,,,0.24,,2013-06-02 00:52:00,
2013-06-01 20:02:00,44.0,-99.9,-100.00,North,-999,-999.0,-999.0,-999,0.00,,,0.24,,2013-06-02 01:02:00,
2013-06-01 20:12:00,44.0,-99.9,-100.00,North,-999,-999.0,-999.0,-999,0.00,,,0.24,,2013-06-02 01:12:00,
2013-06-01 20:22:00,44.0,-99.9,-100.00,North,-999,-999.0,-999.0,-999,0.00,,,0.24,,2013-06-02 01:22:00,
2013-06-01 20:30:00,44.0,-99.9,-100.00,North,-999,-999.0,-999.0,-999,0.00,,,0.24,,2013-06-02 01:30:00,
2013-06-01 20:52:00,44.0,-99.9,-100.00,North,-999,-999.0,-999.0,-999,0.00,,,0.24,,2013-06-02 01:52:00,
2013-06-01 21:02:00,44.0,-99.9,-100.00,North,-999,-999.0,-999.0,-999,0.00,,,0.24,,2013-06-02 02:02:00,
2013-06-01 21:12:00,44.0,-99.9,-100.00,North,-999,-999.0,-999.0,-999,0.00,,,0.24,,2013-06-02 02:12:00,
2013-06-01 21:22:00,44.0,-99.9,-100.00,North,-999,-999.0,-999.0,-999,0.00,,,0.24,,2013-06-02 02:22:00,
2013-06-01 21:30:00,44.0,-99.9,-100.00,North,-999,-999.0,-999.0,-999,0.00,,,0.24,,2013-06-02 02:30:00,
2013-06-01 21:52:00,44.0,-99.9,-100.00,North,-999,-999.0,-999.0,-999,0.00,,,0.24,,2013-06-02 02:52:00,
2013-06-01 22:02:00,44.0,-99.9,-100.00,North,-999,-999.0,-999.0,-999,0.00,,,0.24,,2013-06-02 03:02:00,
2013-06-01 22:11:00,44.0,-99.9,-100.00,North,-999,-999.0,-999.0,-999,0.00,,,0.24,,2013-06-02 03:11:00,
2013-06-01 22:22:00,44.0,-99.9,-100.00,North,-999,-999.0,-999.0,-999,0.00,,,0.24,,2013-06-02 03:22:00,
2013-06-01 22:30:00,43.0,-99.9,-100.00,North,-999,-999.0,-999.0,-999,0.00,,,0.24,,2013-06-02 03:30:00,
2013-06-01 22:53:00,43.0,-99.9,-100.00,North,-999,-999.0,-999.0,-999,0.00,,,0.24,,2013-06-02 03:53:00,
2013-06-01 23:03:00,43.0,-99.9,-100.00,North,-999,-999.0,-999.0,-999,0.00,,,0.24,,2013-06-02 04:03:00,
2013-06-01 23:13:00,43.0,-99.9,-100.00,North,-999,-999.0,-999.0,-999,0.00,,,0.24,,2013-06-02 04:13:00,
2013-06-01 23:23:00,43.0,-99.9,-100.00,North,-999,-999.0,-999.0,-999,0.00,,,0.24,,2013-06-02 04:23:00,
2013-06-01 23:30:00,43.0,-99.9,-100.00,North,-999,-999.0,-999.0,-999,0.00,,,0.24,,2013-06-02 04:30:00,
2013-06-01 23:53:00,43.0,-99.9,-100.00,North,-999,-999.0,-999.0,-999,0.00,,,0.24,,2013-06-02 04:53:00,